Weather in Boyarinovo

Russia / Pskov Oblast     56°08′08″N   28°52′36″E
temp.,
°C
wind,
m/s
gust,
m/s
humid.,
%
clouds,
%
prec.,
mm/h
press.,
hPa
HPBL,
m
16 september, thu
thu1600:00+4nne22884 0.0 102128
03:00+3nne11945 0.0 102110
06:00+2e11955 0.0 102210
09:00+7e23745 0.0 1022272
12:00+12ese225115 0.0 10221173
15:00+13se1246100 0.0 10201413
18:00+10ese2359100 0.0 1020150
21:00+6ese2674100 0.0 1020130
17 september, fri
fri1700:00+6ese2774100 0.0 1020168
03:00+4e387796 0.0 1019203
06:00+4e398082 0.0 1018262
09:00+7ese496689 0.0 1018446
12:00+11e574744 0.0 10181089
15:00+13e564365 0.0 10171375
18:00+11e4752100 0.0 1018986
21:00+8ene41266100 0.0 1019480
18 september, sat
sat1800:00+6e41267100 0.0 1020537
03:00+5e5147074 0.0 1021576
06:00+4ene5147267 0.0 1021573
09:00+6e51464100 0.0 1021789
12:00+11e71146100 0.0 10201225
15:00+13e6104087 0.0 10201474
18:00+11ene61147100 0.0 10201172
21:00+8ene61360100 0.0 1020873
19 september, sun
sun1900:00+6ene5147179 0.0 1020752
03:00+5ene61477100 0.0 1020614
06:00+5ene51475100 0.0 1020641
09:00+6ene51370100 0.0 1020711
12:00+9e61062100 0.1 1021974
15:00+8ene51070100 0.8 10211078
18:00+8ene51064100 0.0 10211051
21:00+7ene51164100 0.0 1022848
20 september, mon
mon2000:00+6ene5126699 0.0 1022805
03:00+4ene51273100 0.0 1022660
06:00+4ne5127398 0.0 1022700
09:00+5ne5126954 0.0 1022721
12:00+9ene695389 0.0 10221103
15:00+11ne7104477 0.0 10211568
18:00+9ne6115490 0.0 10211532
21:00+7ne5106565 0.0 10221066